Portada
METAR-TAF:

METAR-TAF

Aeroports :

Jesaq, Iran

latitud: 26-38N, longitud: 057-46E, altitud: 3 m

Observació

L'informe es va fer fa 1 hora i 49 minuts, a les 21:00 UTC
Vent 4 kt del Nord/Nord-Est
Temperatura 22°C
Humitat 50%
Pressió 1015 hPa
Visibilitat: 8000 m

METAR: OIZJ 132100Z 03004KT 8000 NSC 22/11 Q1015

Hora: 02:19 (22:49 UTC)


TAF: manca

Observacions i pronòstics meteorològics de més de 4000 aeroports (METAR i TAF).

Les estacions disponibles són els punts grocs i vermells al mapa.

Posi el ratolí al punt desitjat per veure el nom de l'estació.

Feu clic per veure les observacions i els pronòstics meteorològics.

Per canviar el mapa: feu clic els botons verds amb una creu de color negre per apropar; al botó verd amb un guió per allunyar la imatge; o en les fletxes verdes per a mapes adjacents.


METAR-TAF: